Regional Weather Roundup
Issued by NWS

Home | Current Version | Previous Version | Text Only | Print | Product List | Glossary Off
Versions: 1 2 3 4 5 6 7 8 9 10 11 12 13 14 15 16 17 18 19 20 21 22 23 24 25 26 27 28 29 30 31 32 33 34 35 36 37 38 39 40 41 42 43 44 45 46 47 48 49 50

000
ASUS44 KMEG 011010
RWRTN
TENNESSEE HOURLY STATE WEATHER ROUNDUP
NATIONAL WEATHER SERVICE MEMPHIS TN
500 AM CDT WED JUL 01 2015

TNZ002-004-019-021-049-052-054-088>092-011100-
WEST TENNESSEE

CITY           SKY/WX    TMP DP  RH WIND       PRES   REMARKS
MEMPHIS INTL   PTCLDY    76  71  85 SW3       29.93R
NWS MEMPHIS      N/A     74 N/A N/A MISG        N/A
JACKSON        PTCLDY    74  72  93 S6        29.93S
DYERSBURG        N/A    N/A N/A N/A MISG        N/A
PARIS          CLEAR     72  70  94 SW5       29.93R
LEXINGTON      CLOUDY    72  72 100 S3        29.93S
$$

TNZ008-025-027-028-033-062-065-066-011100-
NORTH MIDDLE TENNESSEE

CITY           SKY/WX    TMP DP  RH WIND       PRES   REMARKS
NASHVILLE      MOCLDY    74  72  93 SW6       29.94S
CLARKSVILLE    PTCLDY    72  70  93 SW3       29.92S
SMYRNA         PTCLDY    73  70  91 CALM      29.95S
COOKEVILLE     MOCLDY    73  72  94 W5        29.97S
CROSSVILLE     CLOUDY    71  67  87 W7        30.02R
$$

TNZ061-075-076-078-094-096-097-011100-
SOUTH MIDDLE TENNESSEE

CITY           SKY/WX    TMP DP  RH WIND       PRES   REMARKS
FAYETTEVILLE   CLOUDY    70  70 100 CALM      29.99S
TULLAHOMA      CLOUDY    70  68  94 SW5       30.00S
WINCHESTER     CLOUDY    72  70  94 VRB5      30.00S
MCMINNVILLE    PTCLDY    72  72 100 SW5       29.98S
COLUMBIA       CLEAR     72  72 100 S3        29.94F
SHELBYVILLE    CLEAR     72  72 100 S3        29.98F
$$

TNZ017-018-042-046-047-011100-
NORTHEAST TENNESSEE

CITY           SKY/WX    TMP DP  RH WIND       PRES   REMARKS
TRI CITIES     CLOUDY    67  64  90 SW3       30.00R
ELIZABETHTON   CLOUDY    66  63  88 VRB5      30.00R
$$

TNZ012-013-036-069-073-074-011100-
CENTRAL EAST TENNESSEE

CITY           SKY/WX    TMP DP  RH WIND       PRES   REMARKS
KNOXVILLE      CLOUDY    69  67  93 S9        29.97S
OAK RIDGE      CLOUDY    70  68  93 SW3       29.99R FOG
GATLINBURG     MOSUNNY   66  64  94 CALM      29.98R
MORRISTOWN     CLOUDY    66  66 100 VRB3      30.00R
$$

TNZ083-085-099-011100-
SOUTHEAST TENNESSEE

CITY           SKY/WX    TMP DP  RH WIND       PRES   REMARKS
CHATTANOOGA    PTCLDY    72  68  87 CALM      29.99R
$$

SKY/WX REPORTED AS FAIR MEANS FEW OR NO CLOUDS BELOW
12 THOUSAND FEET.




USA.gov is the U.S. government's official web portal to all federal, state and local government web resources and services.